EA1IOS-11 Weather Reports


Display with metric or nautical units.
time (UTC)temp
F
wind
direction
speed
MPH
gust
MPH
rain 1hr
in
rain 24hr
in
rain mn
in
humidity
%
barometer
mb
20260507062543 52 232 2.0 4.0 0.00 0.00 0.00 89 1012.9
20260507061539 52 238 2.0 4.0 0.00 0.00 0.00 89 1012.8
20260507060529 52 106 0.0 2.0 0.00 0.00 0.00 89 1012.8
20260507055520 52 158 0.0 2.0 0.00 0.00 0.00 90 1012.6
20260507054517 52 225 1.0 2.0 0.00 0.00 0.00 90 1012.6
20260507053530 52 233 1.0 2.0 0.00 0.00 0.00 90 1012.6
20260507052527 52 248 1.0 2.0 0.00 0.00 0.00 90 1012.6
20260507051522 52 133 1.0 2.0 0.00 0.00 0.00 90 1012.6
20260507050518 52 0.0 2.0 0.00 0.00 0.00 89 1012.5
20260507045529 52 135 1.0 2.0 0.00 0.00 0.00 89 1012.6
20260507044526 53 117 1.0 2.0 0.00 0.00 0.00 89 1012.6
20260507043521 53 0.0 2.0 0.00 0.00 0.00 88 1012.7
20260507042617 53 113 1.0 2.0 0.00 0.00 0.00 88 1012.8
20260507041607 53 126 1.0 2.0 0.00 0.00 0.00 88 1012.9
20260507040625 54 150 0.0 2.0 0.00 0.00 0.00 87 1012.9
20260507035618 54 158 0.0 2.0 0.00 0.00 0.00 87 1012.9
20260507034615 54 0.0 2.0 0.00 0.00 0.00 87 1013.1
20260507033551 54 248 0.0 2.0 0.00 0.00 0.00 87 1013.1
20260507032546 53 0.0 2.0 0.00 0.00 0.00 87 1013.1
20260507031542 54 270 0.0 2.0 0.00 0.00 0.00 86 1013.2
20260507030539 54 93 2.0 4.0 0.00 0.00 0.00 86 1013.2
20260507025533 54 0.0 2.0 0.00 0.00 0.00 86 1013.2
20260507024529 54 266 1.0 2.0 0.00 0.00 0.00 86 1013.3
20260507023524 54 0.0 2.0 0.00 0.00 0.00 85 1013.4
20260507022541 54 0.0 2.0 0.00 0.00 0.00 85 1013.3
20260507021612 54 90 0.0 2.0 0.00 0.00 0.00 86 1013.5
20260507020607 54 293 0.0 2.0 0.00 0.00 0.00 86 1013.5
20260507015603 54 48 0.0 2.0 0.00 0.00 0.00 86 1013.7
20260507014558 54 135 0.0 2.0 0.00 0.00 0.00 86 1013.7
20260507013554 54 86 1.0 2.0 0.00 0.00 0.00 87 1013.7
20260507012551 54 293 0.0 2.0 0.00 0.00 0.00 87 1013.7
20260507011545 54 86 1.0 2.0 0.00 0.00 0.00 87 1013.9
20260507010541 54 0.0 2.0 0.00 0.00 0.00 87 1013.9
20260507005535 54 26 1.0 2.0 0.00 0.00 0.00 87 1014.0
20260507004531 54 72 1.0 2.0 0.00 0.00 0.00 88 1014.1
20260507003527 54 72 1.0 2.0 0.00 0.00 0.00 88 1014.3
20260507002523 54 315 0.0 2.0 0.00 0.00 0.00 88 1014.4
20260507001538 55 0.0 2.0 0.00 0.00 0.00 87 1014.4
20260507000609 55 90 0.0 2.0 0.00 0.00 0.00 87 1014.4
20260506235605 55 90 1.0 2.0 0.00 0.00 0.00 86 1014.6
20260506234600 55 101 1.0 2.0 0.00 0.00 0.00 86 1014.6
20260506233557 56 255 2.0 2.0 0.00 0.00 0.00 86 1014.8
20260506232552 56 280 0.0 2.0 0.00 0.00 0.00 85 1014.7
20260506231548 56 88 1.0 2.0 0.00 0.00 0.00 85 1014.7
20260506230544 56 89 1.0 2.0 0.00 0.00 0.00 84 1014.7
20260506225540 56 45 0.0 2.0 0.00 0.00 0.00 84 1014.7
20260506224534 57 0.0 2.0 0.00 0.00 0.00 84 1014.6
20260506223530 56 256 1.0 2.0 0.00 0.00 0.00 84 1014.8
20260506222527 56 248 0.0 2.0 0.00 0.00 0.00 85 1015.0
20260506221523 56 248 0.0 2.0 0.00 0.00 0.00 85 1015.1
20260506220519 56 248 3.0 4.0 0.00 0.00 0.00 85 1015.1
20260506215019 57 0.0 2.0 0.00 0.01 0.00 84 1015.2
20260506214108 57 88 1.0 2.0 0.00 0.01 0.00 84 1015.2
20260506213104 57 100 1.0 2.0 0.00 0.01 0.00 83 1015.2
20260506212053 58 113 1.0 2.0 0.00 0.01 0.00 82 1015.2
20260506211043 58 95 1.0 2.0 0.00 0.01 0.00 81 1015.3
20260506210040 58 90 1.0 2.0 0.00 0.01 0.00 81 1015.2
20260506205031 58 105 1.0 2.0 0.00 0.01 0.00 80 1015.4
20260506204019 58 87 1.0 2.0 0.00 0.01 0.00 80 1015.3
20260506203016 58 120 2.0 2.0 0.00 0.01 0.00 80 1015.3
20260506202106 58 113 1.0 2.0 0.00 0.01 0.00 80 1015.2
20260506201057 58 94 1.0 2.0 0.00 0.01 0.00 80 1015.1
20260506200112 58 83 1.0 2.0 0.00 0.01 0.00 80 1015.1
20260506195041 58 117 1.0 2.0 0.00 0.01 0.00 80 1015.1
20260506194031 58 125 2.0 4.0 0.00 0.01 0.00 80 1015.0
20260506193027 58 132 2.0 4.0 0.00 0.01 0.00 79 1014.9
20260506192017 59 109 2.0 4.0 0.00 0.01 0.00 79 1014.8
20260506191108 59 107 2.0 4.0 0.00 0.01 0.00 79 1015.0
20260506190105 59 131 1.0 4.0 0.00 0.01 0.00 78 1014.8
20260506185055 59 118 2.0 4.0 0.00 0.01 0.00 77 1014.8
20260506184044 59 135 2.0 4.0 0.00 0.01 0.00 77 1014.7
20260506183039 60 142 1.0 4.0 0.00 0.01 0.00 77 1014.8
20260506182031 60 110 2.0 6.0 0.00 0.01 0.00 77 1015.0
20260506181101 60 133 2.0 4.0 0.00 0.01 0.00 76 1015.0
20260506180015 61 176 1.0 4.0 0.00 0.01 0.00 77 1015.0
20260506175106 61 331 1.0 4.0 0.00 0.01 0.00 77 1015.0
20260506174057 61 56 1.0 4.0 0.00 0.01 0.00 77 1015.0
20260506173052 62 154 2.0 6.0 0.00 0.01 0.00 76 1014.8
20260506172042 62 117 3.0 6.0 0.00 0.01 0.00 76 1014.9
20260506171034 63 313 3.0 7.0 0.00 0.01 0.00 75 1015.0
20260506170028 64 173 2.0 4.0 0.00 0.01 0.00 73 1015.1
20260506164544 65 30 2.0 4.0 0.00 0.01 0.00 72 1015.0
20260506163541 65 252 2.0 4.0 0.00 0.01 0.00 71 1014.9
20260506162530 65 201 1.0 4.0 0.00 0.01 0.00 71 1014.9
20260506161520 64 109 2.0 4.0 0.00 0.01 0.00 71 1014.8
20260506160516 65 5 1.0 2.0 0.00 0.01 0.00 69 1014.9
20260506155610 64 161 2.0 6.0 0.00 0.01 0.00 71 1014.9
20260506154624 65 43 2.0 4.0 0.00 0.01 0.00 69 1014.9
20260506153555 65 211 2.0 4.0 0.00 0.01 0.00 69 1014.9
20260506152544 63 300 1.0 4.0 0.00 0.01 0.00 70 1015.1
20260506151540 64 9 2.0 7.0 0.00 0.01 0.00 70 1015.1
20260506150531 62 237 3.0 7.0 0.00 0.01 0.00 72 1015.2
20260506145522 62 316 5.0 11.0 0.00 0.01 0.00 72 1015.3
20260506144516 62 327 5.0 11.0 0.00 0.01 0.00 74 1015.2
20260506143108 63 310 4.0 9.0 0.00 0.01 0.00 73 1015.3
20260506142124 63 324 4.0 8.0 0.00 0.01 0.00 71 1015.5
20260506141054 62 301 4.0 8.0 0.00 0.01 0.00 72 1015.4
20260506140045 61 303 5.0 13.0 0.00 0.01 0.00 72 1015.4
20260506135040 63 355 3.0 9.0 0.00 0.01 0.00 72 1015.6
20260506134051 62 296 2.0 6.0 0.00 0.01 0.00 73 1015.7
20260506133020 62 313 3.0 8.0 0.00 0.01 0.00 74 1015.8
20260506132016 62 261 3.0 8.0 0.00 0.01 0.00 75 1015.9
20260506131108 61 263 4.0 11.0 0.00 0.01 0.00 76 1015.8
20260506130057 61 34 2.0 6.0 0.00 0.01 0.00 75 1015.6
20260506125053 61 271 3.0 9.0 0.00 0.01 0.00 75 1016.0
20260506124042 62 237 2.0 4.0 0.00 0.01 0.00 71 1015.9
20260506123034 61 296 3.0 7.0 0.00 0.01 0.00 74 1016.0
20260506122028 61 348 4.0 11.0 0.00 0.01 0.00 74 1016.0
20260506120543 61 314 4.0 8.0 0.00 0.01 0.00 73 1016.0
20260506115532 62 307 3.0 7.0 0.00 0.01 0.00 69 1016.0
20260506114528 63 299 2.0 6.0 0.00 0.01 0.00 67 1016.1
20260506113518 62 355 3.0 8.0 0.00 0.01 0.00 69 1016.1
20260506112608 61 12 3.0 8.0 0.00 0.01 0.00 70 1016.1
20260506111604 62 10 3.0 6.0 0.00 0.01 0.00 69 1016.2
20260506110555 61 297 4.0 7.0 0.00 0.01 0.00 72 1016.2
20260506105545 61 307 4.0 8.0 0.00 0.01 0.00 70 1016.3
20260506104541 61 306 2.0 6.0 0.00 0.01 0.00 71 1016.3
20260506103531 61 288 3.0 8.0 0.00 0.01 0.00 68 1016.3
20260506102520 61 328 3.0 7.0 0.00 0.01 0.00 68 1016.4
20260506101516 61 295 3.0 7.0 0.00 0.01 0.00 69 1016.3
20260506100607 61 326 2.0 6.0 0.00 0.01 0.00 69 1016.2
20260506095557 60 258 2.0 4.0 0.00 0.01 0.00 71 1016.3
20260506094554 60 297 3.0 7.0 0.00 0.01 0.00 71 1016.2
20260506093543 60 52 1.0 4.0 0.00 0.01 0.00 73 1016.3
20260506092533 59 333 2.0 6.0 0.00 0.01 0.00 73 1016.3
20260506091530 60 221 1.0 4.0 0.00 0.01 0.00 73 1016.3
20260506090540 59 298 2.0 7.0 0.00 0.01 0.00 74 1016.2
20260506085610 59 285 2.0 4.0 0.00 0.01 0.00 75 1016.2
20260506084605 58 271 2.0 4.0 0.00 0.01 0.00 76 1016.2
20260506083555 57 237 2.0 4.0 0.00 0.01 0.00 78 1016.2
20260506082608 57 245 3.0 6.0 0.00 0.01 0.00 78 1016.1
20260506081542 56 295 2.0 6.0 0.00 0.01 0.00 80 1016.2
20260506080554 56 242 1.0 4.0 0.00 0.01 0.00 81 1016.2